User: anonymous   Login
Location: Theodore Roosevelt National Park
(46.9990°N, 103.4631°W)
Time: 18:37:25
(UTC-06:00)
Language:

Cosmos 2219 Rocket - Orbit

View from above orbital plane
View from above orbital plane
View from above satellite
View from above satellite

Ground track
Ground track

The orbit data is extracted from the following two-line orbital elements,

1 22220U 92076B   14296.58723416  .00000249  00000-0  14937-3 0  4403
2 22220 071.0001 295.8649 0014931 302.7844 188.0882 14.16323397133762
Epoch (UTC): 23 October 2014 14:05:37
Eccentricity: 0.0014931
inclination: 71.0001°
perigee height: 827 km
apogee height: 848 km
right ascension of ascending node: 295.8649°
argument of perigee: 302.7844°
revolutions per day: 14.16323397
mean anomaly at epoch: 188.0882°
orbit number at epoch: 13376

The dashed part of the orbit path shows where the satellite is in the earth's shadow,  

DLR